Change the Weather History Date:

Thursday, May 16, 2013

  Actual Average Record
Temperature  
Mean Temperature 52 °F -  
Max Temperature 64 °F 63 °F 82 °F (2006)
Min Temperature 40 °F 40 °F 26 °F (2002)
Degree Days  
Heating Degree Days 13    
Growing Degree Days 2 (Base 50)    
Moisture  
Dew Point 46 °F    
Average Humidity 74    
Maximum Humidity 99    
Minimum Humidity 50    
Precipitation  
Precipitation 0.00 in - - ()
Sea Level Pressure  
Sea Level Pressure 29.92 in    
Wind  
Wind Speed 8 mph (South)    
Max Wind Speed 24 mph    
Max Gust Speed 28 mph    
Visibility 10 miles    
Events      
Averages and records for this station are not official NWS values.
T = Trace of Precipitation, MM = Missing Value Source: NWS Daily Summary

Daily Weather History Graph

Daily Weather History Graph

Search for Another Location

Airport or City:

Trip Planner

Search our weather history database for the weather conditions in past years. The results will help you decide how hot, cold, wet, or windy it might be!

Date:

Astronomy

May. 16, 2013 Rise Set
Actual Time 6:03 AM CDT 9:20 PM CDT
Civil Twilight 5:25 AM CDT 9:58 PM CDT
Nautical Twilight 4:36 AM CDT 10:48 PM CDT
Astronomical Twilight 3:32 AM CDT 11:53 PM CDT
Moon 11:48 AM CDT (5/16) 1:34 AM CDT (5/16)
Length of Visible Light 16h 32m
Length of Day
15h 17m
Waxing Crescent, 36% of the Moon is Illuminated
May 16
Waxing Crescent
May 17
First Quarter
May 24
Full
May 31
Last Quarter
Jun 8
New

Hourly Weather History & Observations

Time (CDT) Temp. Windchill Dew Point Humidity Pressure Visibility Wind Dir Wind Speed Gust Speed Precip Events Conditions
12:55 AM 48.6 °F - 40.3 °F 73% 29.88 in 10.0 mi West 6.9 mph - N/A   Clear
1:55 AM 51.6 °F - 40.1 °F 65% 29.88 in 10.0 mi NNW 5.8 mph - N/A   Clear
2:55 AM 48.6 °F - 38.5 °F 68% 29.87 in 10.0 mi NW 5.8 mph - N/A   Clear
3:55 AM 45.7 °F 43.4 °F 40.1 °F 81% 29.88 in 10.0 mi West 4.6 mph - N/A   Clear
4:55 AM 42.4 °F 37.5 °F 38.3 °F 85% 29.89 in 10.0 mi West 8.1 mph - N/A   Clear
5:55 AM 40.1 °F 38.0 °F 38.5 °F 94% 29.89 in 10.0 mi WNW 3.5 mph - N/A   Clear
6:55 AM 46.0 °F 42.5 °F 42.8 °F 88% 29.89 in 10.0 mi NW 6.9 mph - N/A   Clear
7:55 AM 49.1 °F - 41.7 °F 76% 29.89 in 10.0 mi Calm Calm - N/A   Clear
8:55 AM 49.8 °F - 43.3 °F 78% 29.90 in 10.0 mi Calm Calm - N/A   Clear
9:55 AM 51.6 °F - 44.6 °F 77% 29.91 in 10.0 mi Calm Calm - N/A   Partly Cloudy
10:55 AM 54.0 °F - 44.4 °F 70% 29.92 in 10.0 mi South 4.6 mph - N/A   Partly Cloudy
11:55 AM 57.0 °F - 45.0 °F 64% 29.92 in 10.0 mi South 4.6 mph - N/A   Partly Cloudy
12:55 PM 59.7 °F - 52.2 °F 76% 29.94 in 10.0 mi SSW 11.5 mph - N/A   Clear
1:55 PM 59.7 °F - 51.8 °F 75% 29.94 in 10.0 mi South 11.5 mph - 0.00 in   Clear
2:55 PM 61.9 °F - 50.7 °F 67% 29.93 in 10.0 mi SSE 16.1 mph 26.5 mph N/A   Clear
3:15 PM 62.6 °F - 51.8 °F 68% 29.91 in 10.0 mi SSE 17.3 mph - N/A   Partly Cloudy
3:55 PM 64.4 °F - 50.0 °F 59% 30.10 in 10.0 mi SSE 24.2 mph - N/A   Clear
4:55 PM 62.6 °F - 48.2 °F 59% 30.09 in 10.0 mi SSE 18.4 mph 27.6 mph N/A   Clear
5:16 PM 64.4 °F - 46.4 °F 52% 29.91 in 10.0 mi SSE 16.1 mph - N/A   Clear
5:55 PM 64.2 °F - 45.1 °F 50% 29.91 in 10.0 mi SSE 20.7 mph - N/A   Clear
6:55 PM 62.1 °F - 47.8 °F 60% 29.91 in 10.0 mi SSE 18.4 mph - N/A   Clear
7:55 PM 59.5 °F - 47.5 °F 64% 29.91 in 10.0 mi SSE 12.7 mph - N/A   Clear
8:55 PM 56.3 °F - 48.9 °F 76% 29.93 in 10.0 mi SE 9.2 mph - N/A   Clear
9:55 PM 51.3 °F - 48.4 °F 90% 29.94 in 10.0 mi SE 9.2 mph - N/A   Clear
10:55 PM 49.1 °F - 48.7 °F 99% 29.95 in 10.0 mi SE 6.9 mph - N/A   Clear
11:55 PM 50.2 °F - 49.8 °F 99% 29.94 in 10.0 mi ESE 6.9 mph - N/A   Scattered Clouds